Temp_Advection
nan nan nan nan nan nan nan nan nan nan nan nan nan nan nan nan nan nan nan nan nan nan nan nan nan nan nan nan nan nan nan nan nan nan nan nan nan nan nan nan nan nan nan nan nan nan nan nan nan
nan 0 0 -0 -0 0 -0 -0 -0 0 0 0 -0 -0 -0 -0 -0 -0 -0 -0 -0 0 -0 -0 0 0 0 0 0 0 0 -0 -0 -0 -0 -0 -0 -0 0 0 -0 -0 -0 0 -0 0 -0 -0 nan
nan 0 -0 -0 -0 -0 -0 -0 0 1 0 -0 -0 -1 -0 -0 -0 -0 -0 0 0 -0 0 -0 0 0 0 0 0 0 0 0 0 -0 0 -0 0 0 -0 0 0 0 -0 -0 0 0 0 -0 nan
nan 0 0 -0 -0 -0 -0 -0 0 0 0 -0 -1 -1 -0 -0 0 0 0 -0 0 0 -0 0 0 0 0 0 0 0 0 0 0 -0 0 0 0 0 0 0 0 0 0 -0 -0 0 0 0 nan
nan -0 -0 -0 -0 0 0 0 -0 -0 0 0 -0 -0 -0 0 0 0 -0 -0 0 0 -0 0 0 0 0 0 0 0 0 0 0 0 0 0 0 0 0 0 0 0 0 -0 -0 -0 0 0 nan
nan -0 -0 -0 0 -0 0 0 -0 0 0 0 -0 -0 -0 0 -0 0 -0 -0 -0 0 0 0 -0 0 0 0 0 0 0 0 -0 -0 0 -0 -0 -0 -0 0 0 -0 0 -0 -0 -0 -0 0 nan
nan -0 -0 -0 0 0 -0 -0 -0 -0 -0 -0 -0 -0 -0 -0 -0 -0 -0 -0 -0 0 0 0 0 0 0 0 0 0 0 0 -0 0 0 0 0 -0 0 0 0 -0 -0 -0 0 0 -0 -0 nan
nan 0 -0 -0 -0 0 -0 -0 0 -0 -0 0 -0 -0 -0 -0 0 -0 -0 0 0 -0 -0 0 0 0 0 -0 -0 -0 0 0 0 0 -0 -0 -0 0 0 0 -0 -0 -0 -0 -0 -0 -0 0 nan
nan -0 -0 -0 0 0 0 -0 -0 -0 -0 -0 -0 -0 0 -0 0 -0 -0 -0 0 0 0 -0 -0 -0 -0 0 0 0 -0 -0 -0 -0 0 -0 -0 0 0 0 0 0 -0 -0 -0 0 0 -0 nan
nan 0 0 -0 -0 0 0 -0 -0 -0 -0 -0 -0 0 0 0 0 0 -0 -0 -0 0 0 0 0 -0 -0 0 -0 -0 0 0 -0 -0 -0 0 0 0 0 0 0 0 0 0 0 0 -0 -0 nan
nan -0 0 -0 0 0 -0 -0 -0 0 -0 -0 -0 -0 -0 0 0 0 0 -0 -0 -0 -0 0 0 0 0 0 -0 -0 0 0 -0 -0 0 0 0 0 0 0 0 0 0 0 -0 -0 -0 0 nan
nan 0 -0 -0 -0 -0 -0 -0 -0 -0 -1 -0 0 -0 -0 -0 0 0 0 0 -0 -0 -0 -0 0 0 0 0 0 0 0 0 0 -0 0 0 0 0 0 -0 0 0 -0 -0 -0 -0 -0 0 nan
nan 0 0 -0 0 0 0 0 -0 -1 -1 0 0 0 0 -0 -0 -0 -0 -0 -0 -0 -0 -0 -0 -0 0 0 0 0 0 0 0 0 -0 0 0 0 0 0 -0 -0 0 0 0 0 -0 -0 nan
nan 0 0 0 0 0 0 0 -0 -0 -0 0 0 0 0 -0 -0 -0 -0 0 0 -0 -0 -0 -0 -1 -0 -0 0 0 0 0 0 -0 -0 -0 0 0 -0 -0 -0 0 0 0 0 0 0 0 nan
nan -0 0 0 0 0 0 0 -1 -1 0 0 -0 -0 -0 -0 -0 -0 -0 0 0 -0 -0 0 -0 -0 -1 -1 -0 0 0 0 0 -0 -0 -0 0 0 -0 -0 -0 0 0 0 0 0 0 0 nan
nan -0 0 -0 -0 0 0 -0 -1 0 -0 -0 -0 -0 -0 -0 -0 -0 -0 -0 0 0 -0 -0 0 0 -0 -1 -1 -0 -0 0 0 -0 0 -0 -0 0 0 0 0 0 0 0 0 0 0 -0 nan
nan -0 -0 -0 0 -0 0 -0 -0 -0 0 -0 -1 -0 -0 -0 -0 -0 -0 -0 -0 -0 -0 -0 -0 -0 -0 -0 -1 -1 -0 0 0 0 -0 -0 0 0 0 0 0 0 0 0 0 0 -0 -0 nan
nan -0 -0 0 0 0 0 -0 -1 -2 -1 -0 -0 -1 -1 -0 -0 -0 -0 -0 -0 -0 -0 -0 -0 -0 -0 -0 -0 -0 -1 -1 -0 0 0 0 -0 0 0 1 0 0 0 0 -0 -0 -0 -0 nan
nan 0 -0 -0 -0 0 0 -0 -1 -1 0 -0 -0 -0 -0 -1 -1 -0 -0 -0 -0 -0 -0 0 -0 -0 -0 -0 -0 -0 -1 -0 -1 -0 0 0 -0 0 1 1 -0 -0 -0 -0 -0 0 0 -0 nan
nan -0 -0 -0 -0 0 0 -1 -1 -0 0 -0 -0 -1 -1 -1 -2 -2 -2 -2 -1 -1 -1 -0 -0 -0 -0 -0 -0 -0 -0 -1 -1 -0 -0 0 0 0 0 -0 -1 -0 -0 0 -0 -0 0 0 nan
nan -0 -0 -0 -1 -0 -0 -1 -0 -0 -1 -1 -1 -0 -1 -1 -1 -1 -1 -1 -2 -3 -2 -1 -1 -0 -0 -0 -0 -0 -0 -0 -0 -0 -1 -0 0 0 -0 -0 0 -0 0 0 -0 0 0 0 nan
nan -0 -0 -0 -0 -0 -0 0 -1 -0 0 -1 -0 -0 -0 0 0 0 0 0 0 -1 -1 -1 -1 -1 -1 -0 -0 -0 -0 -0 -0 -1 -0 -0 -0 0 0 0 0 -0 0 -0 -0 0 0 0 nan
nan -0 0 0 0 -0 0 0 -1 -0 0 0 -0 0 0 0 0 0 0 -0 0 0 -0 0 -0 -1 -1 -0 -0 -0 -0 -0 -0 -0 -0 -1 -0 -0 0 1 0 -1 -1 -0 0 0 0 0 nan
nan -0 -0 0 0 0 -0 -0 -0 -0 0 -0 0 0 0 0 0 0 0 -0 -1 0 -0 -0 0 -0 0 -0 -0 -0 -0 -0 -0 -0 -0 -0 -0 -1 -0 -0 -0 -0 -0 -0 0 1 0 1 nan
nan -0 -0 -0 0 -0 -0 -0 -1 -0 0 0 -0 -0 0 0 0 0 -0 -0 -1 -0 -0 -0 -0 -0 0 -0 -0 -0 0 0 0 -0 -0 -0 -0 -1 -0 -0 -0 -0 0 0 1 0 0 0 nan
nan 0 -0 0 -0 -0 -0 0 -0 0 0 0 -0 -0 0 0 0 0 -0 -0 -0 -0 -0 -0 -1 -0 -0 -0 -0 -0 0 0 0 -0 -0 -0 -0 -0 -0 -0 -0 0 0 1 0 -1 -0 1 nan
nan 0 -0 -0 -0 0 0 -1 -0 0 0 -0 -0 -0 0 0 0 0 0 -0 -0 -0 -0 -0 -0 -0 -0 -0 -0 0 0 0 0 -0 0 0 -0 -0 -0 -0 -0 -0 0 0 -0 -0 0 0 nan
nan -0 0 -0 -0 -0 0 -0 0 0 -0 -0 -0 -0 0 0 0 0 0 0 -0 -0 -0 -0 -0 -0 -0 -0 -0 -0 -0 0 0 0 0 -0 0 0 -0 -0 -0 -0 0 0 0 0 -0 -0 nan
nan 0 0 -0 -0 0 0 0 -0 -0 -0 -0 -1 -0 0 0 0 0 0 0 0 0 0 0 -0 -0 -0 -0 -0 -0 -0 -0 0 -0 -0 -0 0 -0 -0 -0 -0 0 0 -0 -0 -0 -0 0 nan
nan nan nan nan nan nan nan nan nan nan nan nan nan nan nan nan nan nan nan nan nan nan nan nan nan nan nan nan nan nan nan nan nan nan nan nan nan nan nan nan nan nan nan nan nan nan nan nan nan
Wind_Speed
18 16 12 8 4 4 3 4 2 3 4 6 10 16 12 12 5 6 9 1 2 4 5 5 10 12 10 9 7 7 6 6 4 3 1 4 6 6 7 8 11 12 9 8 4 3 3 3 7
20 13 7 2 4 2 4 4 5 5 4 9 10 8 7 3 13 9 5 6 4 4 6 4 9 11 10 9 8 7 6 5 4 3 1 3 4 5 6 7 10 9 7 5 3 2 3 7 9
17 8 2 4 3 4 3 3 6 7 12 7 4 12 5 3 7 4 3 6 6 3 5 5 8 10 11 10 9 8 6 5 4 3 2 0 3 3 6 9 10 7 6 4 3 4 7 9 11
8 4 1 4 5 4 5 4 9 4 9 9 8 8 7 3 2 3 4 6 4 4 6 5 6 8 9 10 9 8 7 5 4 4 2 1 3 4 7 10 8 6 4 3 3 6 8 9 10
6 2 3 1 3 2 4 8 9 5 6 4 5 4 6 3 1 3 4 4 6 4 5 6 8 8 10 10 10 10 8 7 7 5 4 3 3 3 6 8 7 5 3 3 5 8 8 8 8
3 2 3 2 2 2 4 12 7 4 10 5 3 4 3 3 1 2 2 4 8 5 6 7 6 6 10 11 11 11 10 10 9 8 6 5 6 6 7 8 9 7 4 4 6 8 7 8 8
4 3 4 2 8 4 3 6 7 6 5 6 3 4 5 4 1 3 3 1 4 7 8 7 7 4 8 11 12 12 12 11 10 9 9 8 8 8 8 10 10 11 6 6 7 9 8 8 8
2 4 1 1 3 2 4 3 5 9 3 3 4 2 4 2 3 6 6 4 1 6 9 10 10 6 7 10 12 12 13 13 13 12 12 11 11 11 10 11 12 14 10 7 9 11 10 8 8
2 4 1 4 3 3 4 4 6 5 4 4 2 3 2 5 8 10 11 9 8 6 7 10 13 12 12 11 10 10 12 14 15 16 15 15 13 13 12 12 12 16 14 10 11 12 12 10 9
4 3 2 3 3 3 6 7 4 4 7 3 5 3 4 5 7 9 14 15 14 13 12 10 12 17 17 15 15 13 13 15 17 18 18 17 15 14 13 12 13 15 17 14 13 14 14 14 12
2 3 4 3 6 6 4 4 3 1 4 8 1 6 8 10 11 15 18 19 19 18 18 16 16 15 18 22 22 21 18 16 16 21 20 18 17 16 16 15 15 17 20 20 17 16 17 16 15
5 6 5 4 3 3 2 4 7 9 10 8 10 12 15 17 21 22 23 22 20 20 19 21 21 21 19 19 21 23 22 18 19 19 20 19 16 14 18 16 16 16 19 21 20 18 17 18 18
3 4 5 6 3 2 3 5 7 18 19 18 17 16 18 20 22 20 17 16 16 18 17 18 20 23 24 23 22 22 26 24 24 21 19 20 17 16 17 19 22 21 20 21 23 21 19 19 20
4 7 6 5 3 3 2 3 3 6 4 7 8 12 12 12 13 15 18 21 21 22 22 21 21 20 21 26 26 25 24 28 27 25 22 25 24 22 22 23 23 23 22 23 23 22 21 18 18
4 3 1 6 4 2 1 4 8 10 8 10 11 11 13 14 16 21 22 21 19 21 22 22 22 24 25 22 25 28 28 25 26 23 24 24 23 28 23 27 28 29 25 22 21 19 19 17 17
2 4 2 1 6 2 2 6 6 2 2 9 12 15 18 18 17 15 9 10 12 15 19 25 27 27 28 29 26 26 31 29 30 26 27 29 27 28 27 30 30 30 27 25 24 25 25 24 21
3 1 3 2 8 3 3 6 9 10 22 23 19 16 14 7 7 9 12 15 17 21 23 26 29 31 30 29 30 27 27 33 31 33 28 29 30 30 33 32 33 31 30 28 24 27 30 27 26
1 1 3 2 4 3 4 12 12 23 19 20 15 8 10 10 11 11 10 10 11 17 21 24 24 25 28 28 28 30 30 31 35 35 35 30 29 28 31 30 30 30 29 29 28 26 27 28 26
1 1 3 2 1 4 6 8 16 18 17 3 8 12 13 14 18 19 21 20 20 23 27 27 27 26 25 28 30 31 32 30 33 37 36 36 31 32 32 32 29 28 29 27 24 22 22 20 21
4 3 4 2 3 4 8 15 18 18 5 9 9 12 15 21 26 25 24 25 27 30 31 33 29 27 26 25 32 29 32 32 30 31 35 37 36 31 32 33 32 30 30 27 26 24 21 22 22
3 3 3 2 7 4 9 8 4 3 16 15 13 11 17 18 22 26 28 30 31 30 29 31 33 29 25 23 26 32 29 32 29 29 29 32 37 35 32 29 32 34 33 28 27 23 22 25 26
3 5 5 5 5 2 5 5 6 2 4 6 12 18 18 18 22 25 30 33 29 28 27 29 30 30 25 21 23 25 28 32 30 32 29 26 29 39 36 31 30 32 32 31 28 26 24 24 27
2 4 3 2 3 4 4 2 7 2 5 4 12 18 14 15 21 24 30 30 26 27 26 31 29 18 22 17 20 21 26 29 27 29 31 28 26 29 38 38 32 30 29 29 29 28 28 27 26
3 3 3 1 1 3 5 5 6 3 4 2 5 7 13 18 19 26 32 26 24 23 24 23 19 14 15 16 19 22 23 22 26 26 28 27 29 28 30 36 35 37 32 36 32 29 28 26 24
1 4 3 2 0 5 3 2 9 5 4 4 5 9 12 14 19 25 31 27 23 20 22 20 17 9 9 14 18 21 24 25 23 24 25 25 26 28 29 29 29 31 32 30 27 26 25 24 26
1 2 1 3 2 5 3 6 6 4 7 8 7 8 9 13 15 18 23 24 22 18 17 20 16 8 10 11 14 11 12 15 19 21 23 23 25 25 25 27 27 27 26 24 22 25 25 24 25
1 1 3 2 2 3 4 7 4 4 5 9 12 8 8 8 12 18 20 23 23 20 16 13 16 13 8 13 14 16 15 16 17 18 19 24 25 22 21 22 25 25 24 24 25 25 25 26 27
2 1 2 2 3 4 5 5 5 5 7 8 9 11 8 6 10 13 18 19 22 22 18 13 7 11 9 8 7 7 13 17 20 21 21 22 20 19 20 21 18 18 17 19 22 24 24 24 26
2 2 3 1 3 2 4 6 6 7 8 9 11 11 8 6 8 8 11 16 18 19 20 16 11 7 7 7 5 6 9 11 14 17 17 16 19 19 19 18 19 19 17 18 23 26 29 29 25
5 6 5 3 3 3 2 6 4 7 7 11 11 11 8 9 8 8 9 10 12 15 15 17 15 12 7 6 6 6 6 9 11 13 16 19 17 16 18 19 20 21 23 20 12 15 19 24 22
Wind_Direction
138 128 122 116 72 72 253 264 120 53 49 27 60 82 99 58 32 134 147 121 201 177 166 209 192 185 181 172 165 160 153 146 134 130 65 51 95 99 115 133 133 122 128 139 141 116 159 128 123
136 123 106 111 94 107 264 230 74 59 93 57 56 57 57 65 67 113 196 27 102 134 160 215 192 185 188 183 172 169 166 157 151 147 147 14 94 111 121 136 149 147 144 160 184 135 147 141 126
129 130 131 124 147 179 202 84 118 78 63 52 61 59 64 16 61 94 30 124 108 142 152 187 190 194 190 192 187 183 179 178 179 168 173 273 130 132 134 140 140 137 160 169 136 121 130 134 132
116 118 214 104 213 298 112 142 101 74 50 55 53 76 86 30 98 86 65 149 129 151 170 176 213 207 201 197 198 196 193 194 203 189 214 164 150 163 154 158 146 128 126 152 136 145 142 139 138
109 152 68 188 207 149 71 106 107 78 110 75 50 132 103 99 69 77 79 122 129 150 190 203 219 229 218 209 206 205 206 207 218 215 222 216 181 182 179 177 180 161 143 151 160 161 157 150 149
130 109 84 219 134 105 33 33 59 97 113 93 75 103 132 157 213 51 63 120 139 175 195 205 221 244 229 219 220 218 216 218 223 222 217 214 209 208 210 202 200 203 204 190 179 179 179 172 163
114 89 188 238 157 78 357 31 49 10 55 38 22 76 142 173 352 352 43 127 172 185 204 224 224 236 221 230 232 229 229 231 230 231 226 223 221 223 222 212 215 205 210 210 199 195 192 181 178
91 100 298 353 171 92 343 54 27 54 18 38 18 77 156 242 351 333 310 314 241 200 216 221 229 221 225 231 240 243 238 237 235 236 239 236 230 226 225 220 219 213 217 219 213 206 207 199 189
39 68 22 2 82 127 54 57 32 352 311 340 44 83 37 331 318 304 296 291 286 265 229 222 224 230 241 245 234 238 246 248 243 240 240 241 238 236 230 228 228 220 216 223 223 216 215 215 209
78 87 106 22 24 88 89 70 4 353 347 298 274 263 242 240 238 261 277 282 280 270 265 248 237 235 236 239 244 245 250 259 254 246 244 244 243 243 239 229 234 223 220 224 226 224 222 221 222
93 119 146 58 77 70 58 31 345 289 290 236 282 303 256 242 241 260 274 282 282 275 268 260 254 250 242 236 235 240 235 247 259 248 245 246 246 243 235 227 236 232 225 226 227 226 225 228 228
104 81 87 124 63 65 80 336 307 244 230 224 270 281 276 274 276 281 282 285 285 279 272 269 263 256 253 252 243 239 238 244 251 251 247 242 240 230 228 229 239 247 239 236 235 235 235 232 232
85 128 122 142 162 245 249 253 254 268 259 262 266 270 276 281 286 291 295 297 297 292 289 281 272 265 258 252 252 243 234 233 246 253 253 248 238 225 233 241 246 254 253 246 240 241 242 239 234
95 132 142 173 193 222 240 260 292 273 272 248 251 275 282 286 300 306 310 311 308 302 294 295 285 279 268 257 249 249 243 234 237 244 246 234 235 233 242 241 248 252 258 250 242 242 240 240 238
95 82 135 207 210 183 299 257 233 272 261 251 259 276 286 288 295 293 299 296 303 304 302 294 293 284 280 273 258 247 245 240 235 242 248 240 242 229 236 238 245 249 257 251 238 239 243 241 238
81 46 105 204 157 198 137 260 256 161 344 311 298 291 291 295 298 299 297 294 285 280 281 283 282 282 281 278 269 257 246 241 233 235 238 242 248 233 233 241 245 249 249 250 242 230 236 238 237
17 181 180 237 197 151 177 264 236 278 310 306 302 295 304 344 4 358 331 314 299 288 285 278 276 273 272 274 269 262 254 245 236 233 236 241 243 237 232 233 243 249 247 245 244 241 236 234 232
85 235 196 224 218 227 228 257 275 286 292 287 310 40 24 10 356 343 320 295 287 282 280 284 280 281 269 266 267 268 260 249 241 236 233 240 241 241 241 240 237 240 241 243 244 240 241 244 247
349 47 23 63 62 276 257 284 283 286 279 103 63 30 1 337 318 304 299 295 290 283 283 285 283 277 281 259 259 261 262 258 247 239 236 235 242 242 239 236 236 235 236 235 236 241 243 243 250
44 47 353 39 33 326 316 293 278 274 238 125 67 24 356 334 330 329 318 307 298 291 285 280 282 274 270 278 253 259 261 261 258 255 245 239 236 243 242 241 239 238 234 233 236 238 249 250 248
50 59 33 331 338 348 350 309 354 22 126 94 58 17 349 348 339 339 334 326 319 312 309 293 276 267 265 264 268 250 257 257 251 251 254 246 238 238 242 241 239 237 237 231 237 243 245 251 260
76 19 24 358 29 285 74 283 301 229 200 88 20 2 357 349 347 336 334 332 327 321 318 317 297 267 255 255 262 253 252 253 250 249 251 254 247 236 242 240 237 242 238 236 241 248 254 254 258
111 343 274 262 284 33 323 63 269 296 227 301 9 359 358 349 347 341 341 332 330 331 330 323 305 261 245 249 258 257 252 254 257 250 254 255 255 243 237 243 237 237 249 244 247 252 256 255 256
318 336 298 168 309 344 230 143 275 223 218 341 345 343 335 340 346 347 346 340 336 336 338 338 334 279 249 248 256 252 256 258 254 252 251 255 257 255 243 240 243 247 245 251 251 251 251 255 253
190 50 356 329 308 228 196 110 248 234 160 184 234 302 334 341 345 348 350 347 341 352 352 343 350 308 273 258 263 259 257 255 255 253 253 257 260 255 251 248 242 243 244 247 248 249 252 254 256
3 329 196 253 305 271 318 241 257 163 172 191 230 282 326 336 344 349 360 355 341 339 349 358 334 315 310 299 262 265 271 259 257 252 250 257 263 262 259 248 250 257 250 247 249 252 259 256 260
355 183 118 104 226 275 242 285 297 162 205 227 236 278 296 327 349 357 1 3 357 344 336 347 351 338 288 262 274 245 247 251 254 256 256 256 260 260 252 248 247 250 241 241 253 252 257 259 262
51 79 193 137 303 280 283 277 240 262 245 224 238 258 275 311 346 4 10 9 10 8 357 341 342 345 345 313 285 271 247 245 251 252 250 251 253 258 247 242 245 250 249 243 247 255 260 261 266
151 197 220 336 179 222 304 267 217 225 210 210 229 239 269 285 320 327 354 9 16 19 13 6 3 12 8 352 327 289 281 272 264 258 252 248 250 250 250 243 248 252 263 268 262 265 269 270 265
177 191 175 141 200 233 243 271 209 223 214 225 242 233 280 256 298 303 316 326 352 17 25 30 25 29 21 19 357 350 338 296 269 256 247 241 242 240 244 255 259 267 276 278 277 276 262 259 260
Height
1514 1516 1518 1521 1533 1537 1538 1524 1511 1511 1513 1515 1513 1513 1522 1526 1528 1538 1535 1536 1536 1536 1536 1537 1537 1538 1540 1541 1542 1543 1544 1544 1545 1546 1546 1545 1546 1546 1546 1547 1547 1548 1549 1550 1550 1550 1551 1552 1553
1514 1517 1519 1521 1538 1545 1538 1516 1521 1517 1516 1516 1515 1518 1522 1531 1530 1533 1535 1535 1535 1535 1536 1537 1537 1538 1540 1541 1542 1543 1544 1544 1545 1546 1546 1547 1547 1547 1547 1547 1548 1549 1550 1550 1550 1551 1551 1552 1553
1515 1517 1520 1524 1535 1539 1531 1520 1518 1516 1516 1517 1519 1522 1527 1533 1533 1534 1535 1535 1534 1535 1536 1537 1537 1538 1539 1541 1541 1543 1543 1544 1545 1546 1547 1546 1547 1547 1547 1548 1548 1549 1549 1550 1551 1551 1552 1553 1554
1516 1519 1521 1529 1531 1519 1519 1520 1516 1517 1518 1519 1522 1526 1532 1534 1534 1534 1534 1535 1535 1535 1535 1537 1538 1539 1540 1540 1542 1542 1543 1544 1545 1546 1546 1546 1547 1547 1548 1548 1548 1549 1549 1550 1551 1551 1552 1553 1554
1516 1518 1527 1528 1526 1521 1519 1517 1517 1519 1521 1523 1524 1529 1532 1534 1535 1535 1534 1534 1535 1536 1535 1536 1537 1538 1540 1541 1541 1541 1543 1544 1544 1545 1546 1546 1547 1547 1548 1548 1549 1549 1549 1550 1551 1552 1553 1553 1554
1516 1517 1532 1533 1523 1520 1519 1519 1518 1521 1523 1525 1526 1528 1534 1534 1535 1534 1534 1533 1534 1535 1536 1536 1537 1537 1539 1540 1541 1541 1542 1543 1543 1544 1545 1545 1546 1546 1547 1548 1548 1549 1550 1550 1550 1551 1552 1553 1554
1515 1521 1527 1521 1527 1525 1524 1521 1524 1526 1526 1527 1528 1530 1533 1534 1534 1534 1534 1533 1534 1534 1534 1535 1535 1536 1536 1538 1539 1540 1541 1542 1542 1543 1544 1544 1545 1545 1546 1547 1548 1548 1549 1549 1550 1551 1552 1552 1553
1516 1519 1520 1517 1525 1532 1526 1524 1526 1528 1529 1529 1529 1532 1533 1533 1533 1533 1533 1533 1533 1533 1534 1534 1534 1535 1535 1536 1537 1539 1540 1540 1541 1541 1542 1543 1543 1543 1544 1545 1546 1547 1548 1548 1549 1550 1551 1551 1552
1517 1526 1529 1530 1525 1530 1528 1527 1529 1530 1530 1530 1531 1532 1532 1533 1533 1531 1531 1532 1532 1532 1532 1533 1533 1533 1533 1534 1535 1536 1537 1538 1539 1539 1539 1540 1541 1542 1542 1543 1544 1544 1546 1547 1548 1548 1549 1550 1551
1517 1530 1527 1528 1527 1529 1528 1529 1531 1531 1530 1530 1530 1531 1531 1531 1530 1529 1529 1529 1529 1529 1530 1531 1531 1532 1532 1533 1532 1533 1534 1535 1536 1536 1537 1537 1538 1539 1540 1541 1541 1542 1543 1544 1545 1546 1547 1548 1549
1519 1526 1525 1527 1528 1527 1528 1530 1531 1531 1531 1528 1529 1529 1529 1529 1528 1527 1527 1526 1525 1525 1526 1527 1527 1528 1529 1529 1530 1530 1531 1531 1532 1533 1534 1535 1535 1536 1537 1538 1539 1540 1540 1541 1542 1543 1544 1545 1546
1522 1524 1525 1527 1527 1528 1530 1531 1530 1529 1527 1526 1527 1527 1525 1525 1524 1524 1523 1523 1522 1521 1521 1521 1522 1523 1524 1525 1526 1526 1527 1527 1528 1529 1530 1531 1532 1533 1533 1533 1536 1537 1538 1539 1539 1540 1541 1542 1543
1521 1525 1526 1528 1529 1531 1531 1531 1531 1523 1523 1524 1524 1524 1523 1523 1522 1521 1520 1519 1519 1517 1517 1517 1517 1517 1518 1520 1521 1522 1523 1524 1524 1525 1526 1527 1529 1529 1530 1531 1532 1533 1535 1536 1537 1538 1539 1539 1540
1521 1523 1526 1528 1528 1528 1529 1530 1529 1519 1519 1520 1522 1521 1521 1521 1520 1520 1518 1516 1516 1515 1514 1514 1513 1512 1513 1513 1515 1516 1518 1519 1520 1521 1522 1522 1523 1525 1526 1527 1529 1530 1531 1532 1533 1534 1535 1536 1537
1522 1524 1525 1527 1528 1529 1529 1529 1525 1516 1519 1520 1520 1520 1519 1518 1517 1516 1514 1513 1513 1512 1511 1510 1509 1508 1507 1507 1508 1510 1511 1514 1514 1514 1517 1518 1519 1521 1522 1523 1524 1525 1526 1528 1529 1530 1531 1532 1534
1524 1526 1531 1527 1527 1529 1529 1529 1517 1516 1518 1518 1518 1518 1517 1515 1514 1512 1511 1510 1509 1508 1507 1506 1505 1503 1502 1502 1502 1503 1504 1507 1508 1509 1511 1513 1515 1516 1517 1519 1519 1521 1522 1524 1525 1527 1527 1528 1529
1528 1539 1528 1527 1526 1527 1528 1526 1516 1515 1515 1513 1513 1513 1513 1512 1509 1508 1509 1507 1506 1504 1502 1501 1500 1498 1497 1496 1495 1496 1497 1498 1501 1503 1505 1506 1508 1510 1511 1513 1515 1516 1517 1519 1520 1522 1523 1524 1525
1531 1530 1524 1524 1526 1526 1525 1522 1514 1513 1513 1510 1509 1510 1509 1508 1506 1506 1504 1502 1501 1499 1497 1494 1492 1491 1490 1489 1489 1489 1489 1490 1492 1495 1498 1500 1502 1504 1505 1507 1509 1510 1511 1513 1514 1515 1517 1519 1521
1526 1525 1526 1524 1525 1525 1522 1521 1509 1507 1509 1509 1508 1507 1506 1505 1504 1503 1500 1498 1495 1493 1490 1488 1486 1483 1482 1482 1481 1481 1481 1483 1484 1487 1490 1493 1495 1498 1498 1500 1502 1504 1505 1506 1510 1512 1514 1515 1516
1527 1528 1531 1526 1523 1524 1521 1514 1504 1501 1503 1506 1506 1506 1505 1503 1501 1498 1495 1491 1488 1484 1481 1479 1477 1476 1475 1475 1474 1476 1476 1476 1477 1479 1482 1485 1488 1490 1493 1494 1496 1498 1500 1502 1504 1506 1508 1511 1513
1528 1530 1534 1534 1529 1525 1522 1516 1503 1500 1503 1505 1506 1506 1505 1502 1499 1495 1492 1486 1481 1476 1473 1468 1466 1465 1466 1467 1467 1468 1470 1470 1471 1473 1475 1478 1481 1484 1486 1488 1490 1492 1495 1497 1499 1501 1503 1505 1506
1531 1531 1532 1533 1540 1550 1532 1551 1515 1502 1502 1504 1504 1502 1500 1499 1497 1494 1489 1482 1478 1472 1467 1461 1456 1455 1457 1459 1460 1461 1463 1464 1467 1469 1470 1472 1475 1477 1480 1483 1484 1487 1488 1490 1493 1496 1497 1499 1500
1535 1533 1534 1534 1538 1547 1537 1555 1517 1504 1502 1501 1501 1500 1500 1498 1495 1491 1485 1478 1473 1467 1460 1455 1448 1447 1451 1453 1455 1457 1458 1460 1462 1464 1466 1467 1469 1470 1473 1476 1478 1481 1483 1485 1487 1489 1490 1492 1494
1532 1532 1532 1533 1534 1560 1533 1543 1522 1512 1501 1502 1503 1501 1499 1495 1492 1488 1482 1474 1469 1464 1459 1453 1447 1445 1447 1449 1451 1452 1454 1455 1457 1459 1461 1462 1464 1466 1467 1469 1472 1475 1477 1478 1480 1483 1485 1486 1487
1533 1537 1556 1540 1540 1550 1521 1540 1511 1499 1500 1500 1500 1497 1495 1492 1488 1483 1477 1472 1468 1463 1458 1452 1447 1446 1446 1447 1448 1449 1449 1450 1452 1454 1456 1458 1460 1461 1462 1464 1467 1469 1470 1472 1473 1476 1478 1480 1481
1529 1532 1543 1563 1555 1551 1525 1529 1506 1494 1495 1495 1495 1494 1491 1490 1488 1484 1477 1472 1467 1462 1457 1453 1449 1447 1445 1445 1446 1446 1447 1447 1448 1449 1450 1453 1455 1456 1459 1461 1462 1464 1466 1468 1469 1471 1472 1474 1474
1534 1538 1540 1559 1552 1534 1535 1510 1494 1494 1494 1493 1492 1491 1489 1488 1487 1483 1478 1472 1466 1461 1457 1454 1451 1446 1445 1445 1444 1444 1443 1444 1443 1444 1447 1449 1451 1451 1453 1456 1457 1457 1459 1461 1463 1465 1466 1467 1468
1537 1539 1541 1545 1549 1530 1522 1517 1506 1499 1493 1490 1489 1488 1487 1487 1484 1482 1478 1474 1468 1462 1457 1453 1449 1447 1444 1442 1441 1440 1440 1440 1440 1442 1443 1445 1446 1447 1449 1451 1452 1453 1455 1456 1458 1459 1460 1461 1462
1541 1538 1540 1541 1543 1541 1535 1513 1489 1487 1484 1483 1483 1483 1483 1483 1481 1480 1478 1475 1470 1465 1459 1454 1450 1447 1445 1443 1441 1439 1438 1437 1437 1438 1440 1442 1444 1445 1446 1448 1449 1450 1450 1451 1453 1453 1454 1456 1456
1527 1530 1532 1547 1531 1534 1529 1508 1478 1479 1480 1481 1480 1480 1480 1480 1478 1477 1475 1473 1471 1467 1463 1458 1453 1448 1445 1443 1441 1438 1436 1435 1435 1435 1437 1438 1440 1442 1444 1444 1446 1446 1446 1448 1448 1448 1448 1448 1449